TimeCST,TemperatureF,Dew PointF,Humidity,Sea Level PressureIn,VisibilityMPH,Wind Direction,Wind SpeedMPH,Gust SpeedMPH,PrecipitationIn,Events,Conditions,WindDirDegrees,DateUTC
12:53 AM,24.1,19.9,84,30.00,10.0,West,5.8,-,N/A,,Clear,260,2013-01-07 06:53:00
1:53 AM,23.0,19.0,85,29.97,10.0,SW,3.5,-,N/A,,Clear,220,2013-01-07 07:53:00
2:53 AM,17.1,14.0,88,30.00,10.0,Calm,Calm,-,N/A,,Clear,0,2013-01-07 08:53:00
3:53 AM,17.1,14.0,88,30.00,10.0,Calm,Calm,-,N/A,,Clear,0,2013-01-07 09:53:00
4:53 AM,16.0,12.9,88,30.01,10.0,West,8.1,-,N/A,,Clear,270,2013-01-07 10:53:00
5:53 AM,15.1,12.0,88,30.02,10.0,West,5.8,-,N/A,,Clear,280,2013-01-07 11:53:00
6:53 AM,12.9,10.0,88,30.05,10.0,NW,5.8,-,N/A,,Clear,310,2013-01-07 12:53:00
7:53 AM,15.1,10.9,84,30.07,10.0,NNW,5.8,-,N/A,,Clear,330,2013-01-07 13:53:00
8:53 AM,17.1,12.9,84,30.08,10.0,NW,5.8,-,N/A,,Clear,310,2013-01-07 14:53:00
9:53 AM,23.0,18.0,81,30.08,10.0,NW,4.6,-,N/A,,Clear,320,2013-01-07 15:53:00
10:53 AM,30.0,21.0,69,30.09,10.0,WNW,5.8,-,N/A,,Clear,290,2013-01-07 16:53:00
11:53 AM,35.1,21.9,59,30.08,10.0,WNW,3.5,-,N/A,,Clear,290,2013-01-07 17:53:00
12:53 PM,41.0,21.2,45,29.98,10.0,NE,8.1,-,N/A,,Clear,40,2013-01-07 18:53:00
1:53 PM,43.0,21.0,42,30.01,10.0,ENE,9.2,-,N/A,,Clear,60,2013-01-07 19:53:00
2:53 PM,43.0,21.9,43,30.01,10.0,East,8.1,-,N/A,,Clear,90,2013-01-07 20:53:00
3:53 PM,45.0,21.9,40,30.01,10.0,ENE,4.6,-,N/A,,Clear,60,2013-01-07 21:53:00
4:53 PM,41.0,23.0,49,30.00,10.0,Calm,Calm,-,N/A,,Clear,0,2013-01-07 22:53:00
5:53 PM,33.1,21.9,64,30.02,10.0,Calm,Calm,-,N/A,,Clear,0,2013-01-07 23:53:00
6:53 PM,26.1,19.9,78,30.04,10.0,Calm,Calm,-,N/A,,Clear,0,2013-01-08 00:53:00
7:53 PM,25.0,19.0,78,30.03,10.0,Calm,Calm,-,N/A,,Clear,0,2013-01-08 01:53:00
8:53 PM,23.0,17.1,78,30.02,10.0,Calm,Calm,-,N/A,,Clear,0,2013-01-08 02:53:00
9:53 PM,21.0,18.0,88,30.00,10.0,Calm,Calm,-,N/A,,Clear,0,2013-01-08 03:53:00
10:53 PM,16.0,12.9,88,29.99,10.0,WNW,4.6,-,N/A,,Clear,300,2013-01-08 04:53:00
11:53 PM,18.0,15.1,88,29.95,10.0,Calm,Calm,-,N/A,,Clear,0,2013-01-08 05:53:00